Regional Weather Roundup
Issued by NWS Mobile, AL

Home | Current Version | Previous Version | Text Only | Print | Product List | Glossary On
Versions: 1 2 3 4 5 6 7 8 9 10 11 12 13 14 15 16 17 18 19 20 21 22 23 24 25 26 27 28 29 30 31 32 33 34 35 36 37 38 39 40 41 42 43 44 45 46 47 48 49 50
000
ASUS44 KMOB 261312
RWRMOB
REGIONAL WEATHER ROUNDUP
NATIONAL WEATHER SERVICE MOBILE AL
800 AM CDT MON JUN 26 2017

NOTE: "FAIR" INDICATES FEW OR NO CLOUDS BELOW 12,000 FEET WITH NO
      SIGNIFICANT WEATHER AND/OR OBSTRUCTIONS TO VISIBILITY.

  * THESE STATIONS ARE PART OF THE UNIVERSITY OF SOUTH ALABAMA
    MESONET AND ARE NOT UNDER NWS OR FAA QUALITY CONTROL.

ALZ061>064-261400-
COASTAL ALABAMA

CITY           SKY/WX    TMP DP  RH WIND       PRES   REMARKS
MOBILE REG APT PTSUNNY   73  63  70 NE12      30.15R
BROOKLEY FIELD SUNNY     76  66  71 NE12      30.14S
USA CAMPUS*      N/A     73  64  73 CALM      30.14S
DOG RIVER*       N/A     73  66  78 CALM      30.92


CITY           SKY/WX    TMP DP  RH WIND       PRES   REMARKS
GULF SHORES    MOSUNNY   73  65  76 NE6       30.12S

$$

ALZ051>060-261400-
INTERIOR SOUTHWEST AND SOUTH CENTRAL ALABAMA

CITY           SKY/WX    TMP DP  RH WIND       PRES   REMARKS
GREENVILLE     MOSUNNY   70  60  70 N7        30.15R
EVERGREEN      MOSUNNY   69  62  78 N6        30.15F
ATMORE*        NOT AVBL
ANDALUSIA/OPP  SUNNY     74  61  63 N6        30.14R
ANDALUSIA*     NOT AVBL
FLORALA APT    SUNNY     72  62  71 N7        30.15S
FLORALA*         N/A     72  63  73 W3        30.86S

$$

FLZ001>006-261400-
WESTERN FLORIDA PANHANDLE

CITY           SKY/WX    TMP DP  RH WIND       PRES   REMARKS
PENSACOLA      SUNNY     76  61  59 N6        30.13R
NAS PENSACOLA  PTSUNNY   75  61  61 N9        30.12R
MILTON         MOSUNNY   71  63  75 VRB3      30.13S
WHTNG S FIELD  MOSUNNY   75  63  66 N10       30.14R


CITY           SKY/WX    TMP DP  RH WIND       PRES   REMARKS
JAY*             N/A     70  63  78 NE6       30.15S
DUKE FIELD     SUNNY     72  61  68 N9        30.13R
CRESTVIEW      SUNNY     74  62  66 NE7       30.14R
VALPARAISO     MOSUNNY   72  62  72 N6        30.12R
DESTIN         CLOUDY    76  72  87 N6        30.11S

$$

MSZ076-079-261400-
INTERIOR SOUTHEAST MISSISSIPPI

CITY           SKY/WX    TMP DP  RH WIND       PRES   REMARKS
LEAKESVILLE*   NOT AVBL
AGRICOLA*        N/A     72  63  73 NE8       30.14

$$

MARINE OBSERVATIONS

STATION/POSITION TIME  TEMP    WIND        PRES    WAVE
                       AIR SEA DIR/SP/G            HT/PER
                 (UTC) (F)     (DEG/KT/KT) (MB)    (FT/S)
PASCAGOULA       1248   74      30/  8/ 10 1019.9S
PETIT BOIS ISLND 1248   76      50/ 14/ 17 1020.5R
GRAND BAY        1145   71      30/  6     1021.0R
KATRINA CUT      1230   77      60/ 17     1019.6S
CEDAR POINT      1230   77      50/ 13     1020.0S
E DAUPHIN ISLAND 1200   76      40/ 13/ 15 1019.5R
USCG MOBILE BAY  1248   72 80   30/  8/ 11 1021.2R
STATE DOCKS      1248   75 79              1020.6R
MEAHER PARK      1230   70     360/  3     1020.6R
FORT MORGAN      1248   76      50/ 14/ 16   N/A
12 S ORANGE BCH  1250   77 81   50/ 16/ 17 1019.1R   2/ 4
PENSACOLA BAY    1248   75 81              1020.3R
64 S DAUPHIN ISL 1250   80 83   60/ 10/ 12 1019.0R   2/ 5
67 S FORT MORGAN 1230   77      50/ 10     1018.6S

$$

SELECTED LOCATIONS ACROSS THE REGION

CITY           SKY/WX    TMP DP  RH WIND       PRES   REMARKS
NEW ORLEANS    PTSUNNY   78  70  76 E9        30.12R
GULFPORT       SUNNY     73  65  75 NE6       30.12R
PASCAGOULA AP  SUNNY     74  64  71 NE6       30.12S
PASCAGOULA*    NOT AVBL
HATTIESBURG    CLOUDY    69  62  78 CALM      30.17R
LAUREL         CLOUDY    68  61  77 NE6       30.19R
MERIDIAN       SUNNY     70  64  81 N5        30.19R
JACKSON        SUNNY     71  62  73 NE5       30.18S
MONTGOMERY     CLOUDY    71  61  70 NW3       30.16R
TROY           SUNNY     69  63  81 VRB3      30.15R
ASHFORD*       NOT AVBL
DOTHAN         SUNNY     71  64  78 N8        30.15S
PANAMA CITY    CLOUDY    73  65  75 N5        30.10R

$$




USA.gov is the U.S. government's official web portal to all federal, state and local government web resources and services.